Retour au catalogue

STARLINK-35292

ActifCommunicationsVLEO
NORAD 66322·PAYLOAD·🇺🇸 United States

Lancé Nov 6, 2025 depuis Cape Canaveral Space Force Station

Loading…

Prochains Passages (prochaines 24 heures)

TLE

FraisSource: CelesTrak SupGP

Époque: Sep 14, 2026, 20:48 UTC

1 66322C 25253D   26257.86715278  .00033823  00000+0  12250-2 0  2579
2 66322  43.0028 223.9410 0001372 261.2036 292.7534 15.27562903    15

Suivez STARLINK-35292 en temps réel avec AllMySat

Download on the App Store